Wind_Speed
10 10 10 10 10 9 9 9 9 7 5 3 2 2 1 1 2 2 2 3 4 5 6 7 8 7 8 9 8 8 8 7 6 5 4 4 3 4 4 3 3 3 3
10 10 10 10 10 10 9 10 10 9 7 6 4 3 2 1 2 2 2 3 3 4 5 6 8 8 8 8 8 8 8 7 6 5 4 4 4 4 3 2 2 2 2
10 10 10 10 10 10 10 10 10 10 9 7 5 4 3 2 2 2 2 3 4 5 5 7 8 7 7 8 8 8 7 6 6 5 4 3 3 2 2 1 1 1 2
10 11 11 10 10 9 9 10 9 9 9 8 6 5 3 3 2 2 1 2 3 5 6 7 7 6 6 7 7 7 7 7 6 5 4 3 3 2 1 1 1 1 1
10 10 11 11 10 10 9 9 9 9 9 8 6 5 4 3 2 2 1 2 3 5 6 6 6 6 5 6 7 7 7 7 6 5 4 3 2 1 1 1 1 0 0
10 9 10 10 11 10 10 9 9 8 8 7 7 6 4 4 3 2 2 3 4 5 6 6 6 5 6 6 6 6 6 5 5 4 3 3 3 2 1 1 0 1 1
11 10 10 10 11 10 9 9 9 8 8 7 7 7 5 5 4 4 3 4 5 5 4 5 5 5 5 6 7 7 5 5 5 4 4 3 3 2 1 1 0 0 0
11 11 10 10 10 10 9 9 8 8 8 8 7 7 6 5 6 6 5 5 5 5 4 4 4 6 4 6 7 6 5 4 4 4 4 3 2 2 1 0 1 1 1
11 11 11 10 10 9 9 8 8 8 8 8 7 7 7 7 7 7 7 6 5 5 5 5 5 5 5 5 6 5 6 5 5 3 3 3 2 2 2 1 1 1 1
12 12 11 11 11 10 9 9 9 9 8 8 8 8 8 7 7 8 9 7 6 6 5 5 4 4 4 4 4 4 4 3 2 2 2 2 2 2 1 1 1 2 2
12 12 11 11 11 11 10 10 10 9 9 8 8 8 8 8 8 9 9 9 9 8 7 6 4 4 3 3 3 2 2 2 1 1 1 2 1 1 1 1 1 2 2
11 12 12 12 11 11 11 11 11 10 9 8 9 9 9 8 8 9 9 9 8 7 7 6 5 4 4 4 3 2 2 2 2 1 1 1 1 1 1 1 1 2 3
11 12 12 13 12 13 14 13 13 12 10 9 9 10 11 10 9 9 9 9 8 7 7 6 6 6 5 5 3 2 2 2 2 1 1 1 1 1 1 2 3 3 3
12 11 12 12 12 13 12 13 13 12 11 11 10 10 12 11 10 9 9 7 7 6 5 5 6 5 5 4 3 2 2 1 1 2 2 1 1 2 2 3 3 4 5
11 11 11 12 12 12 11 12 12 12 13 12 12 11 12 12 12 10 9 9 7 6 6 5 5 4 4 4 3 3 2 1 0 1 2 2 2 2 3 3 3 4 5
10 10 11 11 11 11 11 11 11 12 12 12 11 11 11 11 11 11 10 10 9 8 7 5 4 4 4 4 3 3 2 1 1 1 1 1 1 2 3 3 4 4 5
10 10 10 11 11 11 11 11 11 11 11 11 11 10 10 11 11 10 9 9 9 7 6 5 4 5 4 3 3 3 2 2 2 2 2 2 2 2 3 4 4 5 6
9 10 10 10 10 10 10 10 10 10 10 10 10 10 9 9 9 8 8 8 8 8 7 6 6 5 4 3 3 3 3 2 2 2 2 2 3 3 4 5 5 6 6
9 9 9 9 9 9 10 10 9 10 10 10 9 9 9 9 8 8 7 7 7 7 7 6 6 6 5 4 4 4 3 2 2 2 2 2 3 3 4 5 5 6 6
8 8 9 9 9 9 9 9 9 9 9 8 8 8 7 7 7 7 7 6 6 6 6 6 6 5 5 5 4 4 3 2 2 2 2 2 3 4 4 5 5 6 6
7 7 8 8 8 8 8 8 8 8 7 7 6 6 6 6 6 5 5 5 6 6 6 6 5 5 5 4 4 4 4 3 4 3 3 3 4 4 5 5 6 6 7
7 7 7 6 7 7 8 7 7 7 7 6 6 6 5 5 5 5 5 5 5 5 6 6 6 5 4 4 4 4 4 4 4 4 3 4 5 6 6 6 6 6 8
7 7 6 6 6 6 7 8 7 7 6 6 6 6 5 5 4 5 5 4 4 4 5 5 5 5 5 5 5 5 4 4 5 5 5 5 6 7 7 8 9 9 10
6 6 6 5 5 6 6 7 6 7 6 5 5 6 6 5 5 5 5 4 4 4 4 4 5 5 5 6 6 5 5 5 6 5 5 6 7 8 9 10 11 11 12
6 6 6 5 5 5 5 6 6 6 6 6 6 5 5 5 5 5 6 5 4 4 4 5 5 5 6 6 6 6 6 6 6 6 7 7 8 9 10 11 12 13 14
7 7 7 6 6 6 6 6 6 6 6 7 6 6 6 6 6 7 7 6 6 6 6 6 6 6 7 7 7 7 8 8 8 9 9 10 10 11 12 13 14 15 16
Wind_Direction
44 43 40 38 36 33 37 36 32 33 37 44 50 71 87 84 97 116 142 144 151 158 166 174 176 178 181 181 181 179 180 185 187 188 190 198 212 220 222 232 239 245 255
39 36 38 39 38 37 37 37 38 42 44 46 57 75 78 96 111 123 148 155 151 163 169 172 175 180 185 186 183 181 184 189 186 176 188 210 220 226 220 212 238 256 261
39 36 39 38 36 37 39 40 42 45 47 50 59 74 76 76 93 120 154 148 155 161 165 165 170 177 185 187 185 187 185 188 188 187 190 202 213 211 188 164 220 251 281
43 40 40 36 36 36 38 41 42 45 47 51 59 73 72 65 70 80 132 153 165 167 162 158 172 181 186 190 192 188 184 189 187 188 190 201 202 188 148 118 233 283 279
44 40 38 35 35 35 36 42 42 46 51 51 56 61 60 57 55 70 121 132 151 164 163 160 171 178 184 191 190 185 182 188 188 188 190 200 201 186 195 229 297 17 353
44 39 38 33 34 34 35 41 45 46 51 51 48 47 52 47 48 67 136 154 150 153 165 164 169 175 179 185 189 184 186 185 187 187 193 204 200 201 228 291 320 15 6
44 44 42 35 36 39 41 43 46 48 49 46 48 50 56 49 44 56 87 147 153 153 159 162 163 177 176 189 188 177 177 188 180 186 200 194 189 198 293 39 118 15 6
41 39 40 39 43 42 42 45 48 48 53 52 52 53 55 55 56 67 92 127 142 147 148 153 160 162 158 166 166 167 173 181 192 196 187 180 201 230 255 248 203 192 181
40 37 40 44 41 39 42 44 48 53 56 58 60 57 60 61 63 71 86 107 129 136 136 140 146 157 152 160 159 162 177 181 188 190 190 195 225 246 246 230 180 196 210
44 43 43 44 44 42 44 47 49 51 54 62 63 67 73 70 70 76 84 93 105 113 126 124 130 148 146 154 162 160 156 163 178 202 186 199 215 208 210 205 217 234 257
48 47 44 47 47 45 47 49 51 53 61 64 65 67 79 79 81 84 88 100 104 108 114 115 113 122 129 136 137 134 138 133 128 156 163 181 183 167 184 198 213 238 269
51 50 46 50 51 51 50 51 55 61 67 67 67 70 75 83 84 87 93 101 99 100 101 98 97 107 105 116 133 132 144 166 174 174 142 160 195 187 240 246 249 260 279
54 54 53 53 55 54 56 58 59 63 69 69 71 70 70 77 80 82 87 86 84 91 97 99 98 100 101 104 110 125 153 163 170 184 167 182 208 242 270 269 272 278 285
57 58 57 55 55 57 57 58 57 56 59 59 60 59 60 65 69 71 72 75 78 85 92 96 97 101 98 94 96 102 122 142 181 202 203 207 216 254 280 276 284 284 292
57 58 57 55 55 55 56 55 54 55 57 56 56 55 57 62 66 67 73 72 72 80 82 87 89 90 91 87 88 100 110 104 44 200 223 229 237 265 287 289 292 293 300
52 53 56 54 53 54 55 55 56 58 58 57 55 56 60 63 65 69 70 67 64 68 69 71 75 67 66 74 81 82 69 30 354 329 250 229 258 286 307 307 301 304 308
50 51 54 55 52 50 52 55 56 55 56 56 56 54 60 64 62 62 62 60 56 57 60 63 64 60 64 66 71 64 45 29 359 342 317 307 313 319 322 322 313 305 310
47 49 50 53 52 52 53 53 53 51 50 52 52 51 56 61 60 57 54 53 52 53 57 58 59 52 49 49 53 51 44 26 347 327 314 314 321 325 323 319 319 315 316
45 46 46 48 51 50 51 53 51 49 48 47 48 49 54 56 55 52 48 47 44 47 47 49 52 47 43 40 39 38 36 27 7 353 339 326 330 327 316 320 320 314 316
41 41 40 44 45 44 43 45 45 45 45 42 43 46 48 48 45 41 41 43 39 38 36 39 43 41 42 37 32 25 14 3 350 349 351 344 336 323 315 306 302 309 317
33 31 30 38 37 36 36 36 35 33 33 34 34 36 33 31 30 31 31 33 35 33 31 29 33 35 34 31 25 15 358 343 337 335 347 340 331 318 308 307 306 311 317
20 18 19 21 26 26 25 26 26 24 23 22 19 17 17 14 12 17 19 18 19 19 19 18 19 23 21 8 1 356 355 339 329 328 326 317 318 317 309 308 311 314 314
10 8 4 6 9 13 15 14 17 19 17 16 14 10 7 3 2 8 9 9 10 9 6 3 3 4 1 358 350 344 341 340 320 312 315 311 313 317 316 316 311 310 310
359 354 350 350 356 359 2 5 6 4 3 3 0 356 354 354 355 356 355 352 353 354 351 350 353 344 344 344 345 343 337 334 325 320 315 309 307 306 306 310 312 310 308
332 330 328 331 336 342 344 343 345 343 342 341 341 339 343 341 338 337 337 332 329 333 329 326 328 328 326 325 328 328 327 323 317 312 310 304 304 304 303 306 308 311 311
311 312 316 315 320 324 328 328 328 326 325 326 323 319 319 320 321 320 321 321 317 317 316 315 313 316 314 313 314 315 316 317 316 311 308 304 302 301 303 303 304 306 307
Height
5884 5883 5882 5881 5880 5878 5877 5875 5874 5872 5871 5870 5870 5870 5870 5871 5871 5871 5871 5871 5871 5871 5872 5873 5875 5876 5877 5879 5880 5881 5882 5883 5884 5884 5885 5885 5885 5885 5885 5885 5885 5885 5885
5885 5884 5883 5882 5880 5879 5878 5876 5874 5872 5871 5870 5869 5870 5871 5871 5871 5872 5871 5871 5871 5871 5872 5873 5875 5876 5877 5879 5880 5881 5882 5883 5884 5884 5885 5885 5885 5885 5884 5885 5884 5884 5884
5886 5884 5884 5882 5881 5880 5878 5877 5875 5874 5872 5870 5870 5870 5871 5872 5872 5872 5872 5871 5871 5872 5872 5873 5875 5876 5878 5879 5880 5881 5882 5883 5884 5884 5885 5885 5885 5885 5885 5885 5884 5884 5884
5887 5885 5885 5884 5882 5881 5879 5878 5877 5875 5873 5872 5871 5871 5872 5872 5872 5872 5872 5872 5872 5872 5873 5874 5875 5877 5878 5879 5880 5881 5882 5883 5884 5884 5885 5885 5885 5885 5885 5884 5884 5884 5883
5888 5886 5885 5884 5883 5882 5880 5879 5878 5877 5875 5874 5873 5873 5873 5873 5872 5872 5871 5871 5872 5873 5874 5875 5876 5877 5878 5879 5880 5881 5882 5883 5884 5884 5884 5885 5885 5885 5885 5884 5884 5884 5883
5889 5888 5886 5885 5884 5883 5881 5880 5879 5878 5877 5875 5875 5874 5874 5873 5872 5871 5869 5870 5871 5873 5874 5875 5876 5877 5878 5879 5879 5880 5882 5883 5883 5884 5884 5885 5885 5885 5884 5884 5884 5883 5883
5890 5889 5887 5886 5885 5883 5882 5881 5880 5879 5878 5877 5876 5875 5875 5874 5873 5869 5866 5866 5871 5873 5874 5875 5876 5877 5877 5877 5878 5880 5881 5882 5883 5884 5884 5884 5884 5884 5884 5884 5884 5883 5883
5891 5890 5889 5887 5886 5885 5883 5882 5881 5880 5879 5878 5877 5876 5876 5875 5873 5870 5867 5868 5871 5874 5875 5876 5876 5877 5877 5877 5878 5879 5881 5882 5883 5884 5884 5884 5884 5884 5884 5884 5883 5883 5882
5893 5891 5890 5888 5887 5886 5885 5884 5882 5882 5881 5880 5879 5877 5877 5876 5874 5872 5869 5870 5872 5874 5876 5877 5877 5878 5878 5878 5879 5880 5882 5882 5883 5884 5884 5884 5884 5884 5883 5883 5883 5883 5882
5894 5893 5892 5890 5889 5887 5886 5885 5884 5883 5882 5881 5880 5879 5878 5877 5876 5874 5873 5873 5875 5876 5877 5878 5879 5879 5880 5880 5881 5881 5882 5883 5883 5884 5884 5884 5883 5883 5883 5883 5883 5882 5882
5896 5895 5893 5892 5890 5889 5888 5886 5885 5884 5883 5882 5881 5880 5879 5879 5879 5877 5877 5877 5878 5878 5878 5879 5880 5880 5880 5881 5881 5882 5883 5883 5883 5883 5883 5883 5883 5883 5883 5882 5882 5882 5881
5897 5897 5895 5893 5892 5891 5889 5888 5887 5886 5885 5884 5883 5882 5881 5881 5881 5880 5880 5880 5880 5880 5880 5881 5881 5881 5882 5882 5882 5882 5883 5883 5883 5883 5883 5883 5883 5883 5882 5882 5881 5881 5881
5899 5898 5897 5895 5894 5893 5892 5890 5889 5888 5887 5886 5885 5884 5884 5883 5883 5882 5882 5882 5882 5882 5882 5882 5882 5882 5882 5882 5882 5882 5883 5883 5883 5883 5883 5883 5883 5882 5882 5881 5881 5880 5880
5901 5899 5898 5897 5895 5895 5894 5893 5892 5890 5889 5888 5887 5886 5886 5885 5885 5884 5884 5884 5884 5883 5883 5883 5883 5883 5883 5883 5883 5883 5883 5883 5883 5883 5883 5883 5882 5882 5881 5881 5880 5879 5879
5902 5901 5901 5899 5898 5897 5896 5895 5894 5892 5891 5891 5890 5889 5888 5887 5887 5886 5886 5886 5885 5885 5885 5884 5884 5884 5884 5884 5883 5883 5883 5883 5883 5882 5882 5882 5882 5881 5881 5880 5879 5878 5877
5904 5903 5902 5901 5900 5899 5898 5897 5896 5894 5893 5892 5892 5891 5890 5889 5889 5888 5888 5887 5886 5886 5885 5885 5885 5885 5885 5884 5884 5884 5883 5883 5883 5882 5882 5882 5881 5881 5880 5879 5878 5877 5876
5905 5904 5903 5902 5901 5900 5899 5898 5897 5896 5895 5894 5893 5892 5891 5891 5890 5889 5889 5888 5887 5887 5886 5886 5886 5885 5885 5885 5884 5884 5883 5883 5882 5882 5881 5881 5881 5880 5879 5878 5877 5876 5875
5906 5906 5905 5903 5902 5901 5900 5899 5898 5897 5896 5896 5895 5894 5893 5892 5891 5891 5890 5889 5889 5888 5887 5887 5886 5886 5885 5885 5884 5883 5883 5882 5881 5881 5881 5880 5880 5879 5878 5877 5876 5875 5874
5907 5907 5906 5905 5904 5903 5902 5901 5900 5899 5898 5897 5896 5895 5894 5894 5893 5892 5891 5891 5890 5889 5888 5888 5887 5886 5885 5885 5884 5883 5882 5882 5881 5880 5880 5879 5878 5878 5877 5876 5875 5874 5873
5909 5908 5907 5906 5905 5904 5903 5902 5901 5900 5899 5898 5897 5896 5895 5894 5894 5893 5892 5892 5891 5890 5889 5888 5887 5886 5886 5885 5884 5883 5882 5882 5881 5880 5879 5878 5877 5876 5875 5874 5874 5872 5871
5910 5909 5908 5907 5906 5905 5904 5903 5902 5900 5899 5898 5897 5896 5896 5895 5894 5893 5893 5892 5891 5890 5889 5888 5887 5886 5885 5884 5884 5883 5882 5881 5880 5879 5878 5877 5876 5875 5874 5873 5872 5871 5869
5910 5909 5908 5907 5906 5905 5904 5903 5902 5901 5899 5898 5897 5896 5895 5895 5894 5893 5892 5891 5890 5889 5889 5888 5887 5886 5885 5884 5883 5882 5881 5881 5879 5878 5877 5876 5875 5874 5873 5871 5870 5869 5867
5910 5909 5908 5907 5906 5905 5904 5903 5902 5900 5899 5898 5897 5896 5895 5894 5893 5892 5891 5890 5889 5889 5888 5887 5886 5885 5884 5883 5882 5881 5880 5879 5878 5877 5876 5875 5874 5872 5871 5869 5868 5866 5865
5909 5908 5907 5906 5906 5905 5903 5902 5901 5900 5899 5898 5897 5896 5894 5893 5892 5892 5890 5889 5888 5888 5887 5886 5885 5884 5883 5882 5881 5880 5879 5877 5876 5876 5875 5873 5872 5871 5869 5868 5866 5864 5862
5908 5907 5906 5905 5904 5903 5903 5901 5900 5899 5898 5897 5896 5895 5893 5892 5891 5890 5889 5888 5887 5886 5885 5884 5883 5882 5881 5881 5879 5878 5877 5876 5875 5874 5872 5871 5870 5868 5867 5865 5863 5861 5859
5906 5906 5904 5904 5903 5902 5901 5900 5899 5898 5897 5896 5894 5893 5892 5891 5890 5889 5888 5886 5885 5884 5883 5882 5881 5880 5879 5878 5877 5876 5875 5874 5873 5871 5870 5869 5867 5866 5864 5862 5860 5858 5856